Theta_e
315 314 313 313 313 312 311 312 310 306 304 303 302 302 302 302 303 303 302 302 302 302 301 301 301 300 302 301 301 301 302 303 304 305 306 306 307 309 318 324 328 328 327 324 325 326 323 322 321 320 319 319 318 318 317 317 316 315 315 314 313 313 312 312 312 312 312 311 312 312 312 312 312 312 311 311 311 311 311 311 310 310 311 311 310
315 313 314 313 311 309 312 311 310 305 304 303 301 301 301 301 301 302 302 302 302 300 301 300 300 299 300 301 301 301 301 302 303 304 306 307 306 308 314 322 327 328 326 324 325 325 323 324 324 322 321 319 318 318 317 316 316 316 315 314 313 313 312 311 311 311 311 311 311 311 311 311 311 311 310 310 310 310 310 310 309 309 310 309 308
314 313 312 312 311 311 311 308 308 304 303 303 300 301 301 301 302 302 302 301 300 299 301 301 298 299 299 299 299 300 301 302 302 304 306 307 307 306 308 316 321 325 327 323 325 324 322 321 322 321 321 320 319 318 317 316 316 315 313 314 314 312 311 311 311 311 310 310 310 310 310 310 310 310 310 310 309 309 309 309 309 309 308 308 308
313 312 313 312 311 310 309 309 308 303 303 302 300 300 300 299 299 299 299 299 299 298 298 301 298 297 297 298 298 299 300 300 301 304 306 306 306 305 304 309 313 317 322 326 324 323 321 321 321 321 321 320 320 319 318 316 315 315 314 313 313 312 312 311 311 310 310 310 309 309 309 309 309 309 308 309 308 308 308 308 308 308 307 307 307
313 312 311 311 310 309 308 308 307 304 303 301 300 298 298 298 298 297 297 298 298 297 297 297 297 295 296 296 296 297 297 298 299 302 304 302 304 305 304 305 307 310 314 320 325 323 320 320 323 321 320 320 318 320 319 317 316 316 313 313 313 312 311 310 310 310 310 310 310 309 309 309 308 308 308 307 307 307 307 307 307 307 307 306 307
314 311 310 309 309 309 309 308 307 303 304 301 300 299 298 298 297 297 298 298 298 297 298 297 294 294 294 293 294 294 295 296 296 297 298 299 302 304 304 302 303 306 307 312 318 322 321 319 319 318 319 321 319 318 320 318 318 317 314 313 313 312 312 311 310 310 310 309 309 309 308 308 308 307 307 307 306 306 307 306 307 307 306 305 307
316 314 311 309 309 309 310 311 310 306 306 304 302 300 300 299 298 298 297 298 298 298 299 298 296 296 294 293 293 293 294 294 294 296 297 296 298 299 303 303 301 302 303 303 307 315 321 321 320 319 319 319 318 317 317 319 318 318 316 315 314 313 312 311 310 310 310 309 309 308 308 307 307 307 306 306 307 306 306 305 305 306 306 305 306
317 316 313 311 310 310 311 311 310 308 308 305 303 301 300 300 300 301 300 298 298 298 298 298 297 295 294 292 292 294 293 293 294 294 294 294 297 297 300 301 301 301 301 301 303 306 313 315 321 320 318 318 317 318 318 317 316 318 315 313 313 313 312 311 310 310 310 310 309 308 307 307 306 306 306 306 306 305 306 306 305 306 306 306 306
318 317 315 312 311 310 310 310 310 309 308 306 304 303 301 301 300 301 303 300 299 299 297 297 296 294 293 292 292 293 294 293 293 294 295 295 295 295 296 297 299 300 299 299 299 300 307 312 317 319 320 319 317 317 318 318 317 315 314 314 314 313 312 310 310 310 309 309 308 307 307 306 306 306 306 306 305 305 305 306 306 306 306 306 306
319 318 317 315 313 311 309 309 309 309 308 306 304 303 302 302 300 300 302 301 299 299 297 296 296 294 292 292 292 292 293 294 294 295 294 295 296 295 294 294 296 297 296 297 298 298 298 303 309 310 311 314 318 317 318 318 317 316 315 314 314 313 312 311 310 309 309 308 307 307 306 306 305 305 305 305 305 305 305 305 305 305 305 306 305
321 320 318 317 314 311 309 307 308 308 307 306 305 303 301 301 301 300 300 301 301 300 298 296 295 294 293 291 291 290 291 292 293 292 293 294 295 296 293 293 294 294 295 294 294 296 296 294 294 295 301 314 318 319 318 317 317 317 317 315 314 313 312 311 310 309 309 308 308 307 306 306 305 305 304 304 303 303 304 304 304 305 305 305 306
324 322 320 318 315 313 311 308 308 307 307 306 306 304 301 300 300 300 299 298 299 298 296 295 293 292 292 291 290 290 291 291 291 291 292 292 293 293 294 293 291 293 292 292 293 294 294 294 295 294 297 305 312 315 316 317 316 317 317 316 315 313 312 311 310 309 308 308 307 306 306 305 304 303 302 303 303 303 304 304 305 305 305 305 305
325 324 322 317 317 315 312 309 306 306 306 307 307 306 304 302 302 300 299 297 295 296 295 296 294 293 292 291 291 290 291 292 290 289 290 291 291 292 293 292 292 291 292 290 291 292 293 294 294 292 294 294 298 306 309 312 312 317 317 316 316 314 313 311 310 310 308 307 307 306 306 305 303 302 302 303 303 303 304 304 304 305 305 305 305
325 326 324 322 319 316 314 312 309 306 306 307 307 305 305 303 302 299 299 298 296 295 296 297 295 296 294 292 291 290 289 289 289 289 289 290 290 290 290 291 292 291 289 288 290 291 292 291 291 292 293 292 292 294 297 298 301 312 316 316 315 315 314 312 312 310 309 308 307 306 306 304 304 302 303 303 303 303 303 304 304 304 305 305 305
329 326 326 324 322 320 317 315 311 308 306 307 308 307 306 304 302 300 298 297 297 296 296 299 298 295 293 293 292 292 295 291 289 288 289 289 289 289 290 289 290 291 289 289 290 291 291 290 290 291 292 292 292 292 294 298 298 303 310 314 315 315 315 314 313 311 309 307 306 306 306 305 304 303 303 303 303 303 303 303 304 304 304 305 305
330 328 327 326 325 323 321 318 315 311 308 307 306 305 306 305 303 301 300 296 295 293 296 297 297 296 292 295 291 291 291 296 294 292 289 289 289 289 289 290 289 289 287 288 289 289 290 289 290 291 291 291 291 291 292 291 297 300 300 301 307 314 314 315 313 313 310 308 308 307 306 305 304 304 304 303 304 303 303 303 303 304 304 304 304
330 329 326 327 326 325 324 322 319 315 311 309 308 307 307 306 304 301 300 300 297 294 294 296 297 301 300 289 287 288 293 295 290 292 286 287 287 288 289 289 289 289 288 288 288 288 289 289 289 288 289 290 290 290 291 292 293 294 294 295 301 309 313 314 313 313 311 309 309 307 306 305 304 304 303 303 303 303 303 303 303 303 304 304 303
329 330 328 327 328 327 326 324 322 319 315 313 312 310 308 307 305 303 301 301 301 297 294 295 297 298 299 298 296 299 293 290 294 297 288 288 288 288 288 288 289 289 288 288 288 287 288 288 288 288 288 288 290 290 290 291 291 291 288 291 306 307 310 312 312 312 312 311 310 308 307 305 304 303 303 303 302 302 302 302 303 303 304 303 303
326 328 329 328 328 328 327 325 324 322 318 316 314 312 311 309 307 305 303 302 301 298 296 295 295 296 296 297 294 293 294 291 292 293 292 289 286 287 287 287 288 288 289 288 287 287 287 287 288 287 286 287 289 289 289 289 293 293 298 300 305 304 305 307 310 310 311 311 309 308 307 305 304 303 302 302 301 301 301 302 303 303 304 303 303
325 326 328 328 327 328 329 328 326 324 319 316 315 314 313 311 308 307 305 303 302 301 299 296 293 294 295 294 295 295 294 293 294 295 295 291 291 287 287 287 287 287 289 289 288 287 286 286 286 286 286 286 287 288 288 288 289 292 295 301 304 303 303 304 305 306 307 309 309 308 307 305 303 302 301 301 300 300 301 302 303 303 304 303 303
322 323 325 326 325 325 327 327 326 325 317 319 317 316 315 313 310 307 305 304 302 302 302 299 296 297 295 294 294 295 294 292 292 290 292 294 296 292 288 286 286 287 287 288 289 288 287 288 288 287 287 286 287 288 288 288 289 289 293 300 304 305 304 304 303 302 301 300 301 303 303 302 300 300 300 300 300 301 301 302 302 303 303 303 304
319 321 322 323 324 323 323 325 326 326 320 320 319 318 316 315 313 310 308 305 305 303 302 303 300 299 299 297 294 294 293 292 292 290 289 292 296 294 291 288 285 287 287 288 288 289 289 290 289 288 287 287 287 288 288 288 288 289 291 297 301 304 304 305 303 300 298 297 296 295 295 295 296 297 298 300 300 301 301 302 302 302 302 303 304
315 316 318 320 321 320 322 323 324 321 321 322 322 321 318 316 315 312 309 307 306 304 302 303 303 300 299 298 297 296 295 293 294 292 292 291 288 291 292 290 291 291 288 288 289 290 289 289 287 287 287 288 289 288 288 288 290 290 292 296 298 300 301 302 302 300 298 296 295 294 294 295 295 297 298 299 300 301 302 302 302 302 303 303 303
309 312 315 316 317 319 318 320 320 321 322 323 322 319 318 317 315 313 310 308 307 305 305 303 302 302 299 299 298 298 297 297 298 297 294 294 295 296 294 289 287 288 288 287 289 289 288 287 287 287 288 288 288 288 288 288 289 291 292 295 298 300 300 299 299 298 297 296 295 294 295 295 295 296 296 298 299 301 302 302 302 303 302 303 302
305 308 311 314 315 316 317 318 319 319 319 319 319 318 317 315 314 313 312 309 308 307 305 304 303 302 302 300 299 299 298 299 299 299 298 297 296 294 295 290 292 288 287 287 286 287 288 287 288 288 288 288 288 288 288 288 288 291 292 292 296 299 300 299 299 299 298 297 296 295 294 295 295 295 296 297 298 299 301 302 302 302 302 302 302
304 304 308 310 312 314 315 317 318 318 318 319 319 318 316 315 314 313 312 311 310 308 306 305 305 304 304 303 301 299 299 300 299 299 298 296 294 293 294 288 287 290 286 285 286 285 287 288 288 288 288 288 288 288 288 288 288 291 292 289 293 297 299 300 300 299 298 297 295 294 295 294 294 295 296 297 298 299 299 300 301 302 301 302 302
304 304 301 303 306 309 312 313 315 315 316 316 316 316 316 314 313 314 313 312 311 309 308 306 305 305 304 303 303 302 301 301 300 299 299 298 297 296 294 292 290 287 286 285 285 285 288 287 288 288 288 288 287 288 288 288 289 291 291 288 288 294 297 299 299 298 297 296 294 293 293 293 294 294 295 297 298 297 297 297 299 299 300 301 301
300 299 301 302 303 304 306 308 311 312 313 313 314 314 314 313 314 313 312 311 309 308 308 307 306 306 305 304 303 303 303 302 301 300 299 299 299 298 296 294 294 294 289 286 285 285 287 286 287 288 288 287 287 288 288 288 288 291 290 288 285 288 295 296 296 296 296 295 293 293 293 293 294 295 296 295 294 294 295 296 296 297 298 298 299
301 299 300 299 301 302 303 304 306 308 310 311 311 311 312 311 311 311 311 311 310 310 309 308 308 307 306 305 304 304 304 303 301 301 300 300 299 299 298 297 297 294 294 289 289 286 286 287 286 287 288 288 287 287 287 286 288 289 288 287 285 284 291 293 295 295 294 294 293 293 293 293 293 293 293 293 294 294 295 295 296 296 296 296 296
299 299 299 299 299 298 300 301 301 304 306 307 308 308 308 308 308 308 309 307 307 306 306 306 306 306 305 305 304 303 304 302 302 301 299 299 298 298 298 298 298 296 295 294 295 289 288 286 288 286 286 287 287 286 287 287 289 288 287 287 285 284 289 292 293 294 294 294 294 293 292 291 291 292 292 292 293 294 295 295 296 296 296 296 297
297 297 296 296 296 296 297 298 298 299 300 302 303 305 306 306 306 306 307 306 306 306 306 305 305 305 304 304 303 303 303 302 301 299 298 298 298 297 297 296 295 297 296 295 293 291 292 287 285 286 284 286 286 286 286 286 288 288 287 286 286 287 289 290 292 293 293 293 292 291 291 292 292 292 292 292 293 294 295 295 295 295 295 295 295
297 295 296 296 295 295 295 296 297 297 297 297 298 301 302 304 304 304 304 304 304 304 305 304 305 304 303 302 301 301 301 299 298 297 296 295 296 296 295 295 295 294 295 294 293 294 285 285 285 285 285 285 286 284 284 285 287 288 286 286 286 288 287 287 291 291 291 291 290 290 290 290 291 291 292 292 293 293 293 294 293 294 293 294 294
293 294 295 296 296 295 295 295 296 297 298 298 299 300 300 301 302 302 303 302 302 303 302 300 299 301 300 300 300 300 300 298 298 297 296 296 295 295 294 293 293 293 292 292 292 292 285 284 285 284 285 285 284 284 283 283 284 286 286 285 286 285 284 284 285 288 289 289 289 289 289 290 291 291 292 291 291 292 292 292 292 291 291 292 291
292 295 295 295 294 294 295 296 296 297 298 299 299 299 300 300 300 301 301 300 299 299 298 299 298 298 297 297 298 298 298 297 297 296 296 294 293 293 293 292 293 292 292 292 292 292 291 282 284 283 283 285 283 284 283 282 283 284 283 283 284 283 283 282 282 285 288 288 288 288 288 289 290 291 290 290 290 290 290 291 290 290 290 290 289
290 292 294 293 293 293 293 294 296 296 296 297 298 299 299 300 300 300 300 299 298 297 297 297 297 296 295 295 296 297 297 295 295 295 294 294 293 293 293 292 292 292 292 292 292 290 290 284 283 282 282 283 283 283 283 283 283 283 282 282 282 282 283 283 282 283 287 288 288 288 288 289 289 289 289 289 289 289 289 289 289 288 288 288 287
291 290 290 292 292 292 292 293 294 295 295 295 295 296 298 298 299 299 298 297 298 297 297 297 297 295 295 294 295 295 294 294 294 294 294 293 293 292 292 292 291 291 292 290 291 292 290 284 282 282 282 282 283 283 283 283 282 282 282 282 282 282 282 282 282 282 286 288 288 287 287 288 287 287 287 287 288 288 288 288 287 287 286 285 285
290 290 290 289 290 291 293 293 294 294 295 295 295 295 296 297 297 297 297 297 296 296 296 296 295 296 295 295 295 295 294 293 293 293 292 291 292 291 291 292 291 291 291 290 289 289 287 285 281 282 282 282 282 282 282 281 281 281 282 281 281 281 281 282 282 283 286 287 287 286 286 286 286 286 286 286 287 287 287 287 286 285 284 284 284
290 290 291 290 290 291 291 292 293 294 294 294 294 295 295 295 295 295 296 296 296 296 296 295 295 295 295 295 295 294 294 293 293 293 292 291 291 291 290 291 290 290 289 288 288 287 287 285 282 281 282 280 281 281 282 282 280 280 280 280 281 281 281 280 281 280 281 281 280 281 283 285 285 285 285 285 286 285 285 285 285 284 282 282 283
289 290 289 290 290 290 291 291 292 292 293 293 293 294 294 295 294 294 294 294 294 294 295 295 294 294 294 294 294 294 294 293 293 293 292 291 291 290 290 290 290 288 288 287 286 286 286 284 283 282 281 282 281 280 281 282 282 281 280 280 279 280 280 281 280 280 280 281 283 283 283 283 284 283 284 284 284 284 284 284 283 282 282 282 283
289 289 289 290 290 289 290 291 291 291 291 292 293 293 293 293 293 293 293 293 293 293 293 293 293 293 294 294 294 294 294 293 293 293 292 291 290 290 290 289 288 287 287 286 285 285 285 284 282 281 281 280 280 281 281 282 281 281 282 281 280 279 279 280 280 279 280 280 279 281 283 283 283 283 284 283 283 283 283 282 282 281 281 282 283
288 288 289 289 289 289 290 289 290 290 291 292 293 292 292 293 292 292 292 292 292 292 292 292 292 292 292 292 292 293 291 290 291 291 292 292 290 289 288 288 287 287 286 285 285 285 285 284 282 282 280 280 279 279 279 280 280 280 281 282 281 281 279 278 279 280 280 279 279 279 279 280 279 279 278 278 280 281 280 281 280 281 281 282 283
288 288 287 287 288 289 289 290 290 290 291 293 291 292 293 292 292 292 292 292 292 292 291 291 291 291 291 291 291 289 289 289 289 290 291 291 291 291 290 287 287 286 286 285 285 285 284 283 282 281 280 279 279 280 280 281 282 281 280 281 279 278 279 278 279 279 279 279 278 278 279 279 278 278 277 277 278 279 278 278 279 280 280 281 282
288 288 287 287 287 287 288 289 289 290 291 292 292 294 295 295 293 291 291 291 291 291 291 291 291 290 290 290 290 289 288 288 288 289 290 291 290 290 290 289 288 287 286 285 285 285 284 284 283 281 281 280 280 281 281 281 281 281 281 281 279 278 278 276 275 277 279 279 278 277 277 278 278 276 276 277 277 276 277 277 280 280 280 281 280
287 286 286 287 287 287 288 288 288 289 290 291 293 294 294 295 294 292 291 291 291 291 290 290 290 290 290 289 289 289 289 289 288 288 288 289 290 290 289 288 288 289 289 287 285 284 284 283 282 282 281 281 281 282 281 281 280 281 280 280 279 278 278 278 277 275 278 280 278 277 276 277 277 277 275 275 275 275 276 278 279 279 280 280 279
285 286 287 287 287 287 287 288 288 289 290 291 293 293 294 294 295 293 292 291 291 290 290 290 290 289 289 288 288 288 288 286 287 287 287 287 288 289 288 287 288 288 289 290 289 286 286 284 282 282 282 282 281 281 282 282 282 280 279 279 279 279 279 278 278 277 278 280 278 276 274 276 276 275 274 274 274 273 272 276 278 278 278 278 278
285 286 286 286 286 286 286 287 288 288 289 290 292 293 293 293 294 294 292 291 291 290 290 290 290 289 288 288 287 287 286 285 286 286 286 286 286 286 285 285 285 286 288 289 287 287 287 285 284 282 284 284 282 283 283 284 281 280 279 278 279 278 278 278 278 278 278 279 277 275 271 273 274 274 274 273 273 272 271 275 277 277 277 277 277
286 287 287 287 287 287 286 286 287 287 288 290 291 292 292 293 294 293 292 290 290 289 289 289 289 289 288 288 287 287 286 285 285 286 285 285 285 285 285 285 285 285 285 285 286 285 285 285 285 285 284 285 284 284 283 284 283 282 281 280 280 279 278 278 276 276 275 276 276 274 269 272 272 271 272 271 271 270 270 273 275 275 276 276 276
286 286 286 285 286 286 287 286 286 287 288 290 291 291 292 293 293 290 290 289 289 288 288 288 288 288 288 288 287 286 285 285 285 287 286 285 285 284 284 284 284 284 284 285 287 287 286 285 285 285 285 285 285 284 283 283 282 281 281 280 279 278 277 275 273 273 272 273 274 274 269 269 270 270 269 269 269 268 269 267 272 274 275 275 275
286 286 286 286 286 286 286 286 286 286 287 288 290 290 291 292 292 289 288 288 288 287 287 287 287 287 287 286 286 286 285 284 286 288 288 286 285 284 283 283 283 283 283 285 287 288 288 288 287 287 287 287 287 287 286 286 283 281 279 278 276 277 275 274 273 273 271 271 271 273 271 267 268 266 265 266 267 267 267 267 267 272 273 273 273
285 286 286 286 285 284 284 285 285 286 286 287 288 290 290 291 290 288 288 287 287 287 286 286 286 286 285 285 285 285 284 284 286 288 288 286 284 284 283 282 282 282 282 284 284 285 287 287 287 287 287 287 287 287 287 286 285 283 279 277 277 277 275 274 273 272 270 270 270 272 268 265 263 264 261 262 261 263 266 267 267 268 270 270 271
283 284 283 283 284 284 282 283 283 284 284 285 287 289 290 290 290 287 287 287 286 286 286 285 285 284 284 284 285 285 285 285 288 288 288 286 285 284 283 283 282 281 282 283 283 283 283 283 284 284 285 285 285 284 284 285 284 282 281 279 278 277 275 274 272 271 270 270 270 272 265 262 264 263 261 259 258 258 262 263 265 265 266 266 266
Wind_Speed
6 5 4 4 4 4 5 5 4 5 5 4 5 4 4 4 5 4 4 4 4 4 3 3 3 3 3 3 3 3 3 2 3 3 3 3 3 4 5 3 5 11 13 10 11 13 12 11 10 9 7 9 10 10 10 10 10 9 9 8 8 8 8 8 7 7 8 7 8 8 8 8 9 10 8 8 9 8 10 10 9 9 11 11 10
6 4 5 5 4 3 4 4 4 3 5 5 3 5 5 4 4 4 5 4 4 3 4 4 3 2 2 3 2 3 2 3 2 3 3 3 3 2 5 1 6 10 12 9 13 12 11 13 13 12 11 11 10 9 8 8 9 10 9 8 6 7 8 7 7 7 6 6 7 7 7 7 8 8 8 7 8 9 9 9 7 8 10 9 8
5 5 4 4 4 4 4 3 3 3 2 3 2 3 3 4 4 5 5 4 3 2 4 4 3 3 2 2 1 1 2 1 1 3 4 3 3 2 1 6 5 2 6 11 14 12 9 10 11 11 11 10 10 9 9 9 9 7 7 8 8 7 6 7 6 6 6 6 6 6 6 6 6 7 7 7 7 8 8 8 7 9 8 7 8
5 5 5 5 5 5 3 4 3 2 2 3 3 2 2 3 3 2 2 3 4 2 2 4 3 2 2 2 1 1 1 1 1 3 4 3 3 1 0 1 5 4 2 9 13 13 11 11 11 11 11 10 10 9 9 7 7 8 8 8 8 7 6 6 7 7 6 6 5 5 6 6 5 6 6 6 6 6 7 7 7 7 7 7 8
5 6 5 5 5 5 4 4 3 4 3 3 4 3 3 3 3 3 3 3 3 2 2 2 3 2 1 1 1 1 0 1 0 2 3 3 3 2 1 2 2 6 5 2 10 13 11 10 15 13 11 11 11 13 11 10 10 9 8 6 7 7 6 5 6 5 6 6 5 4 5 5 5 5 5 4 5 5 6 6 6 6 6 6 8
5 5 4 4 4 5 5 4 4 4 4 4 5 4 4 4 3 4 3 4 3 2 3 2 1 1 2 1 1 1 1 1 1 1 1 1 3 3 1 1 4 3 5 1 4 9 10 9 9 9 12 14 12 12 14 11 13 13 8 8 9 9 9 8 5 5 4 4 5 5 4 4 4 4 3 4 4 4 5 5 6 6 6 5 8
6 6 6 5 5 5 6 6 5 5 5 4 5 4 5 5 5 5 3 2 2 2 2 2 2 2 1 1 1 1 1 1 1 0 0 1 1 3 3 2 3 1 3 5 1 4 5 11 14 13 12 13 10 8 10 14 14 15 13 13 12 11 10 8 8 7 6 4 5 5 4 3 3 3 3 2 4 4 4 3 4 5 5 5 8
7 7 6 7 6 6 6 5 7 6 5 5 5 6 6 5 6 6 6 4 4 4 2 3 3 2 1 1 1 1 1 1 1 1 2 3 4 2 1 4 1 4 2 4 4 2 1 4 7 12 11 11 11 11 12 12 9 16 11 10 11 10 9 9 8 8 7 7 6 5 4 3 3 2 2 2 2 3 5 4 4 6 6 6 7
8 8 7 8 7 7 6 7 6 6 7 7 6 5 6 6 6 6 6 6 5 4 3 3 3 3 1 1 0 0 0 1 1 0 1 2 3 3 1 2 4 3 3 3 1 2 3 1 3 3 8 13 13 12 13 13 14 12 12 12 12 12 11 10 9 9 8 7 6 5 4 4 3 1 1 2 2 2 4 5 5 6 7 7 8
8 7 7 7 7 7 6 8 9 9 8 8 9 8 7 7 7 6 7 7 6 7 6 4 2 2 2 1 1 0 1 1 1 1 2 3 4 4 2 2 2 2 4 2 2 3 2 1 2 1 1 5 11 13 15 15 12 13 13 12 12 11 11 11 10 8 8 8 7 7 5 4 3 2 1 1 2 2 3 4 5 5 6 7 8
12 11 9 7 6 7 7 8 8 9 8 8 8 9 8 8 8 7 4 4 7 8 7 5 3 2 2 2 1 1 2 2 2 2 4 4 3 2 2 2 2 2 4 2 1 2 4 2 1 1 0 0 1 6 13 17 15 15 14 14 12 12 11 11 9 8 9 9 8 7 6 5 3 2 1 1 2 2 3 4 5 6 6 7 8
9 8 8 7 7 7 8 6 6 4 6 7 6 6 9 9 9 10 9 4 1 3 6 7 4 2 0 2 2 2 3 3 3 4 4 3 4 3 4 3 3 4 4 4 3 4 2 3 3 1 0 1 2 1 4 3 6 16 16 15 15 14 12 13 11 11 10 10 9 8 7 5 4 3 2 2 2 3 3 4 5 6 7 8 9
12 12 12 11 10 8 7 7 8 10 10 10 10 11 10 10 8 5 8 8 6 6 5 6 7 2 0 3 4 2 4 4 5 4 5 4 4 5 4 4 5 4 4 3 4 3 5 4 4 4 2 1 1 2 2 3 3 8 16 15 16 15 14 14 13 12 12 10 9 9 7 6 5 4 3 3 3 3 4 5 6 7 8 8 9
9 9 10 10 10 10 11 10 7 6 6 5 5 6 4 4 3 5 4 7 6 5 5 7 2 8 5 3 4 4 6 5 5 5 6 6 5 5 4 5 6 5 3 4 5 4 3 3 3 3 4 4 2 1 1 1 3 5 11 16 17 17 16 15 15 11 12 12 11 10 8 7 6 5 4 3 3 4 5 6 7 8 9 9 10
10 12 11 10 10 10 10 9 11 10 9 8 7 7 7 9 7 6 4 3 1 3 8 10 5 3 2 3 3 2 4 5 5 8 10 8 6 6 6 6 7 5 4 4 5 5 3 4 4 4 3 3 4 3 3 2 1 3 4 5 14 19 18 16 15 14 13 12 12 11 9 8 7 6 4 4 4 4 6 7 8 9 9 10 10
7 8 9 11 12 11 9 8 9 9 10 10 11 13 12 11 11 11 9 7 6 7 10 12 6 9 3 8 2 2 5 9 10 9 9 8 8 8 6 8 7 6 4 7 6 5 5 4 6 5 4 4 3 3 4 3 2 1 2 3 7 11 19 18 16 15 13 12 12 12 10 9 7 6 6 5 4 5 7 7 8 9 10 10 11
8 10 9 9 10 10 9 9 9 10 10 10 10 11 11 12 13 11 12 12 10 6 8 10 11 11 5 6 2 1 9 3 2 5 5 6 10 9 8 8 8 7 6 8 6 7 6 6 5 4 5 5 5 5 4 3 2 1 1 3 3 7 11 19 17 16 13 13 12 12 11 9 8 7 6 5 5 6 7 8 9 10 10 11 13
6 7 9 10 10 10 10 10 9 8 9 9 9 9 10 9 11 12 12 11 10 8 8 7 10 10 10 4 2 6 5 3 2 7 0 7 3 8 10 10 8 7 8 8 9 8 7 7 6 7 6 6 6 5 4 3 2 2 2 0 3 4 7 13 18 18 17 14 14 13 12 10 9 7 6 6 6 7 8 9 10 10 11 12 13
9 8 8 8 9 9 9 10 9 9 9 10 11 12 11 11 9 9 11 12 11 11 13 10 7 10 11 11 8 2 3 7 8 2 6 1 5 7 9 7 6 8 10 10 9 8 7 7 7 6 6 6 5 4 3 3 3 3 4 3 4 1 2 6 8 18 18 17 15 13 13 11 8 7 6 6 7 7 9 10 10 11 11 12 14
9 9 9 8 7 8 9 10 10 11 10 9 9 7 5 6 9 12 10 8 10 12 11 8 12 11 13 13 14 6 4 2 2 7 6 4 5 4 5 7 6 9 11 11 11 9 8 7 7 7 7 7 6 6 6 6 6 5 5 8 7 5 3 2 4 3 5 13 17 14 12 12 9 7 7 7 8 9 9 10 10 11 12 14 15
9 10 9 9 7 7 8 9 9 9 8 10 12 13 15 14 13 12 13 13 13 14 11 12 12 12 9 12 12 11 5 3 1 1 7 8 12 7 7 3 6 9 11 11 10 9 10 8 6 8 8 6 6 7 7 6 6 5 5 9 11 10 9 7 5 5 5 8 6 3 5 7 7 7 8 8 9 9 9 10 11 11 12 14 15
7 8 9 8 8 7 7 8 9 9 8 9 8 8 8 9 11 12 13 14 12 12 15 12 12 12 11 8 9 8 6 6 7 8 6 8 14 8 7 9 9 11 11 12 14 10 8 7 7 10 9 7 8 8 7 7 6 4 6 11 12 12 12 11 10 7 6 4 3 2 2 3 6 8 9 9 9 9 9 10 11 12 13 15 15
5 6 7 7 8 8 8 8 8 8 8 8 10 12 13 13 12 11 12 14 12 13 12 11 10 11 12 11 13 12 14 14 15 12 12 9 7 11 10 9 12 8 7 10 9 10 9 9 11 11 9 8 7 7 7 6 6 6 9 10 9 12 12 12 11 10 8 6 4 1 2 3 5 7 9 10 10 10 10 10 11 13 13 14 15
5 5 6 7 8 9 9 8 8 7 9 9 9 6 5 7 9 11 12 12 11 10 11 14 15 10 11 11 10 9 10 11 12 12 13 13 12 14 9 3 4 9 1 1 6 9 10 12 12 10 9 8 8 8 7 7 7 11 8 10 11 12 12 12 12 11 10 7 5 4 4 4 5 7 9 10 10 11 11 12 13 14 14 14 15
6 7 7 8 8 8 8 9 9 8 8 6 6 8 7 6 7 9 10 12 13 13 11 13 13 13 13 11 11 11 12 11 10 9 9 9 10 12 10 5 9 4 5 4 5 5 9 11 11 10 10 10 9 9 9 9 8 11 11 7 11 9 11 12 13 12 9 8 8 7 5 5 6 8 9 9 10 11 12 13 14 14 15 15 16
7 9 8 8 7 8 9 9 9 8 8 8 8 6 5 6 7 8 9 9 8 10 12 13 12 14 12 10 11 11 12 11 12 11 11 9 10 12 11 3 3 8 0 3 2 3 7 10 9 9 10 10 9 8 8 8 8 13 14 9 9 10 10 11 12 10 12 11 9 7 5 4 6 7 8 9 10 11 11 12 13 14 15 15 16
8 7 5 7 8 8 9 9 9 9 8 9 8 7 7 7 6 7 7 7 9 10 12 14 14 16 15 14 13 13 13 12 11 12 10 11 11 10 9 11 7 5 7 4 4 10 8 2 10 10 11 9 9 9 9 9 9 14 15 10 8 11 11 12 11 12 12 10 7 7 5 4 4 5 7 9 10 10 11 12 12 13 14 15 16
5 5 6 7 7 8 8 9 9 9 9 9 9 8 7 7 8 8 10 5 5 7 9 9 13 14 13 13 11 13 11 11 11 12 12 12 12 10 8 9 12 14 6 8 6 10 9 9 4 11 11 11 9 9 8 10 9 15 14 8 8 8 11 12 13 13 11 9 9 7 5 3 2 5 7 9 9 10 11 12 12 13 14 15 16
7 6 6 6 7 7 8 8 8 8 9 9 9 9 9 9 10 10 12 9 10 12 9 10 11 12 13 16 15 14 13 12 11 11 12 11 11 11 9 12 12 12 12 7 10 10 6 13 8 7 11 10 10 8 10 10 10 12 8 8 9 8 10 14 15 14 12 10 8 6 3 1 2 4 6 8 9 10 11 11 12 13 14 15 16
6 6 6 7 7 7 7 8 7 8 9 9 9 9 9 9 10 10 9 6 8 7 8 8 9 8 10 11 11 11 10 10 12 11 10 11 10 9 10 10 9 13 12 12 14 8 4 6 9 4 8 10 9 8 9 10 11 14 9 9 8 8 13 16 15 13 11 9 7 4 3 3 2 4 6 8 9 10 11 12 13 14 15 16 17
6 6 6 7 7 6 7 7 7 8 8 8 8 8 8 9 9 9 9 8 9 11 10 9 10 9 12 13 11 12 10 11 10 9 9 9 10 10 10 9 10 13 13 12 14 3 5 6 7 5 6 9 9 8 8 8 11 14 10 10 9 11 14 11 13 11 10 8 6 6 5 3 2 5 7 8 9 10 11 12 13 13 14 14 14
6 5 6 7 7 8 8 9 9 8 8 8 8 8 8 9 9 9 8 9 11 12 11 9 9 11 12 13 12 11 10 9 10 9 9 10 10 10 10 11 11 11 10 10 13 14 2 1 4 5 7 9 9 9 9 7 8 15 8 9 9 13 8 6 10 11 10 9 8 8 5 2 3 5 7 8 9 10 11 11 11 12 11 11 12
5 6 7 8 7 8 8 8 10 10 10 10 9 9 9 10 10 10 9 9 11 11 9 10 8 9 10 11 12 12 10 11 10 9 10 11 10 10 8 9 10 9 10 12 14 14 1 2 2 4 5 8 8 9 10 9 8 8 7 6 8 8 7 6 6 10 11 10 8 6 2 1 3 5 7 7 8 9 8 9 8 8 9 10 11
5 7 8 7 7 7 8 9 9 9 9 10 8 9 10 11 11 9 10 10 11 11 9 11 9 9 8 10 11 10 9 11 10 11 10 9 10 10 10 10 11 11 11 11 13 12 10 3 2 3 6 7 7 8 11 10 9 8 8 7 5 7 7 6 6 6 12 9 7 5 2 2 4 5 6 6 6 6 5 6 7 8 9 10 11
5 7 7 7 8 7 8 8 9 9 9 9 8 8 10 11 12 11 10 10 11 11 11 12 10 8 9 9 10 10 7 9 9 10 9 10 9 11 12 10 11 12 10 12 11 11 12 5 5 7 7 7 6 9 9 7 8 9 9 8 7 6 6 6 6 5 9 9 8 5 2 2 4 4 3 3 3 3 4 5 7 7 9 10 11
7 7 6 7 7 7 8 9 9 9 9 9 8 9 11 11 11 11 10 10 11 11 12 11 10 9 10 9 10 9 8 10 10 9 9 9 9 10 10 10 11 12 11 10 12 11 6 6 5 6 6 7 3 6 7 7 9 8 8 7 7 7 6 5 6 6 7 9 7 3 2 1 0 1 1 1 2 3 4 5 6 7 9 10 11
7 7 7 6 7 8 10 10 10 10 10 9 9 10 10 10 11 10 10 10 10 11 11 10 10 9 9 10 9 8 9 11 9 9 7 10 9 10 10 10 10 10 8 8 10 8 5 6 5 2 5 3 2 6 9 10 7 8 7 7 7 7 6 5 5 5 8 7 5 4 3 2 2 3 1 1 2 3 4 5 6 7 9 11 12
7 7 8 7 7 9 9 10 10 10 9 9 10 11 11 10 10 10 9 10 10 10 10 10 9 9 9 10 9 9 10 11 10 9 9 10 9 10 10 9 9 8 8 6 6 7 7 5 8 5 4 6 5 5 7 9 11 8 7 7 6 5 6 5 3 4 3 3 3 2 3 3 4 2 1 1 2 3 4 5 6 8 10 11 12
7 8 7 8 7 8 10 8 10 10 10 9 10 10 10 10 10 10 10 10 10 10 9 10 9 9 9 9 9 9 10 10 10 10 9 10 10 11 11 11 9 7 7 7 6 7 7 6 4 6 7 3 7 8 5 6 7 10 12 9 6 3 4 6 4 3 3 3 3 6 5 5 4 3 2 3 3 4 4 5 6 8 11 12 12
7 8 8 8 8 7 9 9 9 8 9 9 9 10 10 10 9 10 10 10 10 9 9 9 8 8 9 9 9 9 10 10 10 10 9 10 8 9 8 7 6 7 8 6 6 7 7 7 7 7 5 8 5 3 6 8 8 4 5 6 10 6 4 2 3 6 3 4 4 3 6 4 3 3 3 4 3 4 6 6 7 9 11 12 12
7 7 7 7 9 9 9 9 10 8 9 10 9 9 10 10 9 10 10 10 10 10 9 9 8 8 8 8 8 8 10 12 14 13 12 11 8 8 7 7 8 8 7 6 7 7 6 6 6 7 8 7 8 9 8 9 10 10 6 5 5 6 6 5 3 2 3 4 4 5 4 4 3 3 3 2 1 5 5 7 6 9 11 11 11
8 7 7 7 8 9 10 10 9 9 10 9 11 15 14 11 9 9 9 9 9 9 9 9 9 8 9 8 8 12 13 13 13 14 14 13 14 11 9 9 9 9 9 8 8 8 8 9 9 10 10 9 9 10 10 8 6 8 7 7 8 6 7 5 3 2 3 4 5 5 4 3 4 2 3 2 2 4 3 4 4 6 9 10 9
9 8 7 8 8 8 9 10 10 9 9 9 14 16 17 19 12 9 9 9 9 9 9 10 10 9 9 8 7 9 10 10 11 14 14 15 15 15 13 13 12 12 10 9 9 10 10 9 8 9 10 10 9 8 8 8 8 10 9 7 8 8 8 9 5 2 2 6 5 4 3 2 4 4 2 3 3 4 4 4 8 9 9 8 8
8 6 7 9 9 8 8 9 10 10 10 11 15 16 17 17 15 11 9 9 9 9 9 10 9 8 8 8 7 7 7 8 8 8 11 13 14 14 12 12 13 14 14 13 11 8 8 8 8 9 9 9 10 8 8 8 8 7 7 8 9 10 9 7 4 5 5 7 5 4 4 1 3 4 3 3 3 3 4 6 8 8 6 7 8
6 7 8 8 9 8 8 10 11 11 10 11 14 16 16 17 17 14 9 10 9 9 9 9 9 8 6 6 6 6 6 10 8 7 6 7 10 12 10 11 12 13 10 11 10 10 11 10 11 10 10 10 11 9 9 10 9 9 8 8 7 7 5 6 4 4 6 7 6 4 4 1 4 3 5 2 3 3 4 6 7 5 5 7 7
6 8 7 8 8 8 8 9 11 10 10 10 14 16 16 16 16 14 10 10 10 9 9 8 8 7 7 7 7 7 5 6 6 7 6 6 6 6 7 6 6 8 10 10 10 9 9 10 11 11 8 10 11 10 9 11 13 11 10 9 8 9 7 6 6 6 4 4 7 5 2 1 1 4 4 2 2 3 3 5 5 4 5 6 7
10 10 9 9 9 7 8 8 9 12 10 11 14 15 15 16 15 14 10 8 8 8 8 7 7 7 7 8 7 7 6 7 7 8 8 7 7 7 7 7 7 7 8 8 7 8 7 6 7 8 9 9 10 12 11 9 9 9 10 11 10 8 7 7 7 5 4 2 4 4 4 3 1 3 1 2 3 3 3 4 4 4 5 6 7
8 7 8 7 9 10 8 7 9 12 10 10 13 14 15 15 15 10 8 8 9 8 8 7 7 8 7 7 7 7 7 8 9 14 10 8 8 9 9 8 8 7 5 6 11 10 9 8 8 9 9 9 11 11 11 10 8 9 9 9 9 9 9 8 6 3 2 1 1 3 3 2 1 3 1 2 3 2 2 3 5 6 5 5 6
10 10 10 10 8 9 10 8 9 12 11 8 12 14 14 16 12 8 7 7 7 8 8 8 8 7 6 7 7 7 7 7 10 15 15 13 9 10 11 11 8 8 8 8 15 16 15 14 14 15 15 17 19 20 19 18 12 11 10 10 9 9 9 8 4 4 3 1 1 3 4 3 1 1 1 2 2 0 2 2 2 6 5 5 7
13 11 9 11 10 7 9 11 9 11 12 8 10 14 14 15 12 9 7 7 8 8 7 6 5 5 6 10 8 7 7 7 12 17 17 14 11 11 12 12 12 11 9 8 8 10 17 18 18 18 19 19 20 21 20 19 19 13 12 11 10 9 7 7 7 5 3 1 0 2 4 2 1 1 1 2 2 0 3 1 2 3 5 4 7
11 10 9 9 11 9 7 9 10 11 11 10 11 14 14 14 12 7 7 7 8 7 6 6 5 6 6 7 11 8 8 9 17 18 20 15 11 12 12 13 12 12 10 12 12 12 11 12 12 12 12 14 12 10 12 19 16 9 5 7 9 9 8 7 7 6 3 2 3 3 4 1 4 0 3 2 1 1 0 0 2 2 1 0 2
Wind_Direction
167 171 153 168 155 155 159 156 142 144 134 132 136 137 131 131 127 126 119 120 115 115 108 88 86 81 110 113 113 110 103 98 101 92 68 60 47 12 3 303 216 161 155 158 145 145 143 149 143 145 129 129 134 134 131 128 127 125 124 120 118 116 113 113 111 107 102 99 90 91 92 82 83 86 80 67 71 66 69 69 57 47 60 53 42
170 163 166 171 167 161 164 162 157 153 143 149 154 141 143 132 128 133 134 132 126 133 117 110 89 84 90 122 123 135 130 131 127 116 106 63 47 25 14 5 177 155 162 172 146 155 156 155 150 144 138 138 137 134 135 136 135 138 137 132 129 127 124 114 105 99 89 92 97 99 99 95 92 91 79 61 64 64 72 75 58 46 64 54 46
166 169 170 162 166 171 180 155 153 159 144 134 124 136 138 145 154 149 144 135 126 120 123 117 110 94 95 110 138 98 111 118 163 145 109 84 63 29 356 70 90 110 173 181 163 163 160 165 162 158 155 148 149 149 153 149 149 141 142 146 144 133 131 124 120 113 118 111 114 106 99 96 89 83 74 63 69 58 63 67 45 49 54 56 30
169 168 173 167 173 178 170 169 175 141 124 126 116 97 114 102 87 90 98 104 107 82 75 116 115 102 93 113 83 96 83 91 207 132 115 112 103 10 320 104 91 79 48 180 168 171 172 176 174 179 166 165 160 160 154 159 164 156 156 151 146 154 152 145 140 141 133 131 129 125 118 109 103 99 89 71 69 64 62 64 56 44 44 27 27
177 175 173 174 168 167 175 184 155 143 126 132 122 109 96 97 77 78 82 86 91 77 61 65 104 81 63 51 60 83 8 56 28 89 119 130 129 124 300 329 128 93 81 189 187 179 179 190 175 174 174 177 181 170 170 177 174 166 159 157 143 150 138 136 150 153 153 152 136 111 105 109 118 106 98 99 66 58 58 50 39 41 45 16 12
170 170 164 165 167 175 179 184 162 153 139 143 144 147 135 126 127 111 116 128 141 137 125 113 66 53 72 18 37 7 4 28 13 33 67 149 166 155 95 357 303 139 127 96 204 183 183 195 198 192 187 176 190 188 178 180 177 176 184 176 167 168 163 168 167 157 144 139 138 138 132 115 103 116 95 81 96 68 55 45 33 22 30 12 358
180 171 175 171 175 183 190 190 171 161 159 166 156 152 155 160 156 137 131 119 133 164 161 159 148 141 79 34 48 356 32 21 358 356 345 301 267 169 153 97 309 280 155 146 89 135 202 200 202 198 205 192 200 179 195 185 184 162 167 174 182 173 170 169 178 162 163 153 154 152 152 138 116 110 118 68 54 57 54 38 19 1 13 5 348
186 180 179 184 185 192 198 181 174 167 169 164 163 173 176 164 178 163 157 182 165 188 168 161 161 142 55 62 21 18 20 34 357 345 342 338 288 211 223 145 186 288 216 129 136 94 83 336 232 196 205 196 193 197 200 201 205 179 184 173 180 184 172 175 176 172 176 171 168 164 159 150 144 107 86 90 44 24 16 23 8 352 353 353 347
196 192 189 189 192 193 191 182 175 182 173 172 181 185 174 175 182 188 177 171 185 179 175 171 166 150 100 80 17 18 355 317 324 41 350 322 292 284 199 255 148 287 277 129 119 120 66 355 351 160 217 201 201 206 206 204 206 185 196 195 194 189 177 178 184 179 178 172 176 174 167 170 166 135 71 69 49 20 4 358 357 350 345 340 338
196 198 207 202 201 200 197 186 180 184 187 181 190 177 178 179 187 203 191 166 183 182 188 168 148 146 120 107 313 34 256 282 304 320 205 221 249 285 317 339 332 235 279 181 190 139 101 28 41 31 102 227 206 215 212 208 204 197 198 197 197 196 185 180 189 181 170 184 188 185 182 180 181 173 108 17 21 8 354 340 340 333 329 327 329
193 191 200 204 209 209 200 194 189 185 186 196 194 184 181 183 183 188 228 229 190 179 166 155 147 147 177 257 270 254 262 239 226 238 251 233 220 274 320 268 251 277 275 251 188 225 150 160 156 106 8 321 187 229 226 216 206 207 202 207 210 207 200 190 183 184 187 192 189 185 186 189 188 184 226 282 308 318 318 318 320 319 316 321 321
200 197 201 200 201 200 197 181 189 203 202 192 198 197 193 189 197 181 184 190 180 168 152 149 139 118 333 308 277 281 262 245 252 249 251 247 231 206 244 255 262 241 246 265 216 183 190 182 182 162 104 351 337 319 340 341 236 203 210 209 212 221 211 213 208 205 206 199 195 192 192 193 192 206 219 252 278 297 302 310 311 312 316 318 318
198 193 195 191 191 195 208 201 187 190 195 202 199 201 202 197 190 203 189 173 181 175 191 155 146 131 323 252 269 240 256 253 249 245 244 247 247 238 211 223 234 249 245 255 263 224 184 191 189 182 166 102 302 321 330 294 276 235 224 218 216 223 217 221 223 209 215 211 204 200 194 197 205 213 231 238 271 290 299 305 312 315 317 316 318
197 206 203 197 198 195 193 197 197 212 231 249 214 193 184 213 203 178 194 198 204 173 166 137 168 203 187 246 279 281 252 250 249 247 239 233 228 240 239 230 235 231 244 265 256 226 214 205 214 215 186 179 206 254 273 292 289 273 249 213 225 228 225 219 226 213 218 221 219 209 202 205 210 227 232 252 270 286 298 307 310 314 312 317 318
194 190 196 202 206 205 207 199 190 187 197 205 203 207 188 191 191 204 200 199 172 174 176 201 188 135 81 65 256 256 251 249 233 232 226 221 210 223 224 233 235 230 227 248 252 261 228 195 205 215 231 205 187 211 228 233 241 279 325 291 231 228 232 227 224 217 224 226 227 223 210 207 214 223 236 254 276 292 300 305 307 309 312 315 316
202 205 203 199 200 206 208 203 205 199 203 204 199 200 194 194 189 193 180 194 194 206 199 201 173 148 196 207 175 126 322 244 224 230 207 217 212 223 208 223 225 221 211 235 231 233 246 233 211 200 206 213 210 215 226 219 226 112 341 320 342 262 235 234 228 223 223 225 234 230 225 217 218 223 234 252 271 288 297 303 306 309 311 311 308
204 197 201 206 203 204 206 207 202 195 196 206 210 217 212 203 194 188 189 197 201 207 218 210 208 211 176 116 63 227 223 261 89 263 167 209 226 217 217 220 219 211 219 235 221 221 221 224 228 213 207 205 211 205 211 227 214 199 335 12 334 323 262 240 235 230 224 216 235 237 237 233 226 231 244 254 274 288 298 302 304 306 307 308 304
220 219 208 203 204 204 202 203 202 198 201 212 218 211 212 205 197 196 200 206 204 192 215 215 227 232 248 283 160 193 165 216 113 265 348 229 241 220 223 218 207 213 223 230 222 221 211 219 217 221 208 212 206 204 204 213 209 202 126 337 328 323 319 247 235 237 237 214 215 237 238 241 241 243 255 272 284 293 298 300 302 305 305 304 306
228 225 223 216 213 205 203 202 198 201 204 210 215 211 203 200 191 200 205 204 197 204 207 205 211 243 243 251 259 205 166 130 214 338 292 268 220 223 234 229 217 218 227 231 225 219 214 211 218 217 221 211 203 192 186 212 226 200 200 208 208 86 8 354 265 239 240 242 238 240 249 253 252 252 259 272 289 296 300 303 305 306 307 304 304
230 231 233 231 224 222 214 212 213 207 198 211 222 218 214 207 197 204 213 216 210 216 212 190 191 221 219 228 238 223 198 240 185 207 233 254 247 242 249 235 218 229 231 232 228 221 218 210 214 219 219 210 196 193 189 196 201 202 201 206 199 167 134 112 45 4 282 260 245 237 245 257 266 278 289 294 295 301 305 307 308 307 304 305 308
227 233 234 237 233 229 225 226 222 220 206 211 205 202 201 196 192 194 200 203 205 212 208 204 203 220 199 229 231 232 226 245 333 262 228 241 258 213 228 202 227 239 234 228 231 217 212 208 214 226 223 208 197 201 197 193 194 196 201 206 206 196 189 171 147 113 94 65 38 302 252 265 283 293 294 296 298 305 309 308 305 306 307 304 309
225 228 233 235 240 238 234 231 230 225 206 204 213 225 232 229 219 211 210 213 213 213 215 215 210 218 209 210 211 222 231 257 249 240 266 231 250 230 210 199 223 235 217 225 224 216 205 203 210 220 222 209 204 200 196 188 182 186 204 203 208 209 204 197 181 158 134 121 119 83 359 320 307 297 295 297 303 306 306 305 305 304 302 306 308
227 232 229 231 237 239 238 238 237 231 232 242 231 217 207 206 212 214 218 218 215 213 218 227 222 219 214 211 215 202 207 212 221 218 220 230 245 256 238 211 228 253 230 217 215 215 207 207 217 219 210 210 204 200 194 183 171 183 196 204 205 213 210 208 199 182 172 165 148 135 233 268 288 297 300 302 304 309 311 310 303 300 302 305 309
232 236 229 226 232 237 239 243 241 241 239 232 235 244 248 234 212 202 207 213 220 222 225 227 227 226 221 220 226 218 223 226 231 220 213 225 222 244 236 206 265 232 276 230 214 214 211 215 218 215 207 207 204 197 190 182 183 181 190 199 199 205 206 207 202 188 177 169 148 213 236 264 284 294 296 301 309 314 311 307 303 300 304 307 310
221 225 228 223 227 234 236 237 241 239 241 242 247 228 206 202 218 221 216 210 209 207 218 226 222 224 227 222 222 222 226 227 238 238 234 234 231 247 245 172 233 235 206 153 216 214 217 223 215 212 208 206 204 194 190 187 182 180 181 197 195 198 209 208 207 192 169 183 189 196 222 249 270 288 298 304 311 310 307 305 303 305 306 308 312
217 220 219 221 226 230 234 240 243 245 244 245 243 239 221 209 205 212 221 228 226 218 220 222 224 228 229 229 224 228 233 228 230 232 233 219 225 225 241 234 229 256 91 234 191 187 245 225 216 216 210 210 211 195 190 187 180 178 180 177 182 190 206 208 208 178 187 192 197 207 214 248 281 291 302 306 302 305 310 311 308 309 311 313 314
220 225 210 213 222 226 229 235 238 242 246 249 251 251 250 247 241 236 231 219 217 213 219 218 223 225 223 225 229 226 229 227 227 231 220 220 221 221 215 240 252 231 250 212 247 221 237 191 208 215 212 207 202 194 190 189 185 177 182 171 168 189 198 201 193 191 197 187 188 212 219 242 274 303 302 297 298 307 313 310 313 315 316 316 314
229 213 219 208 217 223 227 231 233 237 239 243 246 246 242 244 247 244 249 221 232 228 237 235 239 238 235 234 237 238 229 227 222 225 220 219 221 224 209 220 241 263 217 244 214 249 205 228 198 213 209 204 198 192 181 178 189 185 178 171 169 183 196 193 194 197 192 189 197 203 211 238 302 302 297 295 305 311 310 312 314 313 314 311 314
227 214 220 215 218 219 224 228 229 231 234 234 237 239 240 241 244 246 249 245 241 245 239 234 237 232 232 228 228 233 230 228 229 228 227 223 224 224 215 218 219 238 260 251 233 223 203 200 210 220 202 198 195 185 182 194 189 181 181 175 170 175 190 194 197 197 192 193 195 200 193 91 354 321 303 304 303 302 305 308 311 312 311 310 309
223 225 217 221 221 219 224 227 226 225 228 230 230 231 231 235 237 239 238 229 236 241 235 239 247 245 245 242 237 241 236 230 228 225 223 222 221 220 222 226 218 229 239 255 267 168 215 194 207 199 183 196 188 183 188 194 186 181 179 175 174 176 183 189 197 193 188 185 185 152 107 69 346 296 295 292 297 302 307 309 310 309 309 309 314
232 228 224 227 225 226 223 231 228 228 227 228 225 229 226 237 237 242 239 236 242 245 241 233 243 240 245 243 236 239 232 232 228 222 218 215 221 218 225 214 219 224 232 239 262 238 172 195 214 183 166 189 180 177 187 192 187 184 177 176 175 171 176 181 182 184 174 161 138 107 84 47 313 288 276 285 299 304 304 304 307 310 314 320 324
237 232 230 230 224 221 220 221 224 226 226 225 218 224 225 234 237 239 236 230 238 241 242 230 233 231 234 238 235 234 230 229 227 220 216 217 217 220 217 215 220 219 227 239 243 256 67 221 178 167 166 166 167 175 185 187 191 183 175 173 166 161 161 152 160 150 133 126 103 80 65 28 285 274 284 294 299 298 302 310 315 323 330 333 337
232 233 233 235 233 230 231 229 229 227 221 221 212 214 219 230 233 234 236 228 236 242 238 239 228 231 236 238 234 230 224 226 223 221 220 220 217 223 216 217 222 212 212 225 236 252 162 333 105 160 162 151 171 177 178 179 173 174 158 152 149 148 142 132 120 120 114 103 92 82 75 291 283 284 285 291 293 296 309 316 335 347 344 345 348
225 238 237 239 236 234 234 235 234 236 235 231 220 215 220 225 232 226 233 230 234 242 235 242 233 227 225 235 242 239 228 228 222 224 218 218 213 215 215 211 219 218 209 214 233 237 236 93 106 112 153 178 167 176 180 171 169 155 146 140 135 134 133 128 124 119 114 111 108 115 151 245 271 276 281 287 294 315 324 336 350 351 355 1 3
241 239 245 241 239 238 240 241 239 239 235 237 231 223 228 230 233 230 225 226 231 237 237 240 239 231 232 234 241 239 233 232 227 228 216 220 213 216 220 211 220 221 211 212 219 229 230 196 162 163 172 181 174 175 172 164 155 151 140 139 135 121 117 127 125 118 123 123 132 139 198 274 273 279 292 307 313 321 344 350 2 11 17 15 7
260 251 242 248 245 240 243 244 240 241 239 234 232 226 231 232 236 236 230 228 231 235 237 241 237 230 233 237 242 237 233 232 228 226 221 217 212 219 220 217 219 220 215 210 215 226 217 163 193 174 170 161 133 150 140 139 144 143 138 125 120 121 122 120 123 112 128 132 137 146 192 257 43 70 243 276 317 344 1 13 19 28 30 16 5
257 259 256 239 247 242 241 242 242 239 237 235 232 233 234 236 238 238 234 232 233 235 237 239 239 234 237 237 245 231 228 233 231 227 219 217 217 217 220 219 217 220 218 206 214 213 192 174 137 139 141 100 93 143 145 144 132 108 117 130 132 122 111 110 91 109 121 131 141 152 150 140 161 175 177 298 353 27 30 31 35 42 28 11 1
263 254 255 250 237 247 243 245 243 245 241 234 233 235 235 236 238 238 238 238 237 236 236 235 235 233 238 244 243 233 232 230 234 228 219 220 216 219 221 220 218 216 212 206 197 197 193 173 153 135 156 142 137 140 153 147 137 117 106 105 104 110 123 112 94 93 58 96 69 85 158 160 166 138 177 81 53 44 41 44 53 37 21 6 359
267 266 257 256 249 245 252 246 247 245 245 236 236 236 238 236 234 234 234 235 238 239 238 236 234 233 236 240 240 233 234 233 235 230 222 220 215 221 216 219 213 200 203 198 185 184 183 156 151 149 138 140 148 143 147 139 135 144 140 135 120 120 108 114 115 80 108 113 155 165 170 185 164 148 152 91 54 51 53 66 45 30 15 3 351
268 265 263 260 260 245 251 248 251 247 247 245 239 239 238 236 233 234 231 232 234 238 240 239 235 234 234 236 237 234 232 234 231 232 221 223 215 223 218 211 198 192 199 184 177 181 175 168 161 154 153 143 108 50 120 131 122 124 167 151 154 143 129 97 116 142 144 136 137 153 174 138 125 131 103 75 57 58 74 63 38 27 11 353 341
271 266 267 265 269 264 257 252 255 246 245 244 238 236 240 239 232 235 230 229 230 235 238 238 235 235 238 238 239 238 235 236 232 230 225 218 207 217 213 193 193 192 187 175 181 177 179 167 151 147 148 150 154 148 154 164 170 166 152 121 113 122 124 121 115 101 130 145 157 159 164 168 160 145 138 100 58 86 67 56 34 20 359 343 338
281 275 272 265 260 265 268 264 257 252 248 247 241 237 234 236 234 234 232 231 228 231 235 239 237 230 233 232 236 234 236 236 236 235 232 224 216 212 206 187 188 189 185 179 181 182 176 175 171 163 161 165 165 167 162 164 128 108 125 133 128 129 123 120 123 163 165 146 154 164 170 165 146 153 129 140 93 91 73 39 17 6 346 339 342
286 285 278 274 265 259 260 263 264 257 253 250 245 242 242 238 235 234 231 234 228 230 231 233 237 232 230 227 231 232 233 236 235 233 230 226 221 220 211 196 190 183 179 183 189 181 181 182 168 167 169 164 169 164 159 143 144 150 153 147 132 140 153 151 165 129 184 164 162 151 196 177 146 160 149 109 99 85 50 29 2 351 340 339 345
287 284 280 270 272 269 266 264 261 259 257 251 247 247 245 245 238 235 233 232 229 228 228 230 234 231 230 226 225 222 222 224 224 227 229 226 221 217 207 197 197 195 187 181 179 182 181 163 160 173 161 167 159 161 154 150 144 130 139 150 157 159 160 167 146 161 169 160 154 154 185 147 144 140 113 91 93 75 39 13 357 349 344 343 345
287 280 270 274 269 268 264 267 266 260 258 253 250 250 248 245 241 236 238 234 233 234 228 229 229 228 225 227 230 220 222 219 219 215 213 219 217 205 194 191 194 194 197 202 192 180 167 165 167 170 172 158 160 172 165 155 145 142 151 157 161 156 133 139 137 119 152 159 148 147 168 168 134 128 126 94 81 73 32 6 358 352 344 344 351
289 286 282 273 273 267 262 262 268 269 262 259 250 250 249 245 243 238 240 237 236 236 234 228 228 224 220 220 223 225 212 206 205 202 195 194 178 169 169 174 177 186 183 160 135 147 161 162 163 170 169 160 165 159 158 153 157 162 157 156 152 152 150 140 127 123 115 163 158 141 118 134 70 120 125 105 75 50 41 3 4 357 345 351 1
313 305 302 298 285 274 270 264 269 272 267 263 257 253 251 248 244 240 239 239 238 237 234 229 224 222 216 218 217 219 203 201 202 191 188 175 164 162 157 158 150 147 139 135 126 126 129 135 152 151 151 158 159 161 161 162 156 151 156 155 153 139 114 96 85 103 89 11 133 126 159 148 345 90 137 92 41 38 49 8 13 11 3 1 360
304 293 290 279 284 288 280 275 277 276 275 266 262 260 256 254 247 242 239 237 238 235 231 224 223 220 217 208 211 209 199 205 203 198 186 164 163 160 150 135 127 119 104 112 126 127 132 139 146 156 160 157 148 149 149 143 127 117 102 95 100 115 128 141 146 149 110 332 41 117 117 136 44 128 154 54 45 41 61 30 11 15 12 1 354
308 307 300 294 291 288 288 281 275 279 281 274 266 264 260 257 253 247 239 239 238 236 232 225 226 220 211 203 204 205 198 199 198 195 184 169 159 151 147 145 135 119 117 126 130 134 138 141 143 141 139 143 147 148 147 140 135 131 122 122 147 149 148 148 147 148 168 132 8 92 114 141 140 111 26 352 54 194 163 121 17 5 12 356 355
307 305 304 301 294 283 283 283 272 279 284 277 268 268 261 256 246 245 239 238 240 236 240 231 224 221 212 208 200 197 192 190 191 188 178 171 162 159 152 143 140 133 134 133 119 125 130 130 130 131 136 140 142 144 144 143 141 140 142 158 164 152 156 158 154 151 121 102 164 128 95 159 103 78 62 312 30 269 159 156 107 13 9 346 350
289 294 299 294 294 289 274 276 282 276 280 281 272 270 262 257 250 242 238 236 244 242 235 235 219 215 212 207 201 192 188 186 188 185 180 176 163 163 158 150 149 147 155 143 133 129 128 123 122 123 123 128 129 129 140 143 143 140 131 135 149 155 157 155 134 113 91 214 205 181 117 209 103 46 100 9 351 283 74 347 331 329 300 176 358